Location: Moscow Pond
(43.6842°N, 73.2366°W)
Time: 06:18:02
(UTC+00:00)

Cosmos 1802 Rocket - Pass Details

Date: 08 November 2025
Orbit: 953 x 1011 km, 82.9° (Epoch: 10 December)

Event Time Altitude Azimuth Distance (km) Brightness Sun altitude
Rises 10:18:45 0° 347° (NNW) 3,738 6.8 -14.6°
Reaches altitude 10° 10:21:23 10° 342° (NNW) 2,777 6.1 -14.2°
Maximum altitude 10:27:27 49° 270° (W) 1,259 4.2 -13.1°
Drops below altitude 10° 10:33:25 10° 197° (SSW) 2,721 6.3 -12.0°
Sets 10:35:59 0° 192° (SSW) 3,656 7.0 -11.6°
